Great Bend, KS

3:06 PM CDT on April 27, 2017 (GMT -0500)
Great Bend Municipal

Weather History for KGBD - July, 2014

Change the Weather History Date:

Monday, July 21, 2014

  Actual Average Record
Temperature  
Mean Temperature 84 °F -  
Max Temperature 98 °F 92 °F 105 °F (1964)
Min Temperature 69 °F 68 °F 50 °F (1970)
Cooling Degree Days 18    
Growing Degree Days 34 (Base 50)    
Moisture  
Dew Point 70 °F    
Average Humidity 64    
Maximum Humidity 88    
Minimum Humidity 44    
Precipitation  
Precipitation 0.00 in - - ()
Sea Level Pressure  
Sea Level Pressure 29.94 in    
Wind  
Wind Speed 14 mph (South)    
Max Wind Speed 23 mph    
Max Gust Speed 29 mph    
Visibility 10 miles    
Events      
Averages and records for this station are not official NWS values.
T = Trace of Precipitation, MM = Missing Value Source: NWS Daily Summary

Daily Weather History Graph

Daily Weather History Graph

Search for Another Location

Airport or City:

Trip Planner

Search our weather history database for the weather conditions in past years. The results will help you decide how hot, cold, wet, or windy it might be!

Date:

Astronomy

Jul. 21, 2014 Rise Set
Actual Time 6:28 AM CDT 8:54 PM CDT
Civil Twilight 5:58 AM CDT 9:24 PM CDT
Nautical Twilight 5:20 AM CDT 10:02 PM CDT
Astronomical Twilight 4:39 AM CDT 10:43 PM CDT
Moon 2:19 AM CDT (7/21) 4:39 PM CDT (7/21)
Length of Visible Light 15h 26m
Length of Day
14h 26m
Waning Crescent, 24% of the Moon is Illuminated
Jul 21
Waning Crescent
Jul 26
New
Aug 3
First Quarter
Aug 10
Full
Aug 17
Last Quarter

Hourly Weather History & Observations

Time (CDT) Temp. Heat Index Dew Point Humidity Pressure Visibility Wind Dir Wind Speed Gust Speed Precip Events Conditions
12:15 AM 80.6 °F 84.6 °F 71.6 °F 74% 29.88 in 10.0 mi South 17.3 mph - N/A   Clear
12:35 AM 78.8 °F - 71.6 °F 78% 29.89 in 10.0 mi South 16.1 mph 23.0 mph N/A   Clear
12:55 AM 78.8 °F - 71.6 °F 78% 29.89 in 10.0 mi South 13.8 mph 20.7 mph N/A   Clear
1:15 AM 78.8 °F - 69.8 °F 74% 29.89 in 10.0 mi South 15.0 mph - N/A   Clear
1:35 AM 78.8 °F - 69.8 °F 74% 29.89 in 10.0 mi South 16.1 mph 20.7 mph N/A   Clear
1:55 AM 77.0 °F - 69.8 °F 78% 29.89 in 10.0 mi South 13.8 mph - N/A   Clear
2:15 AM 77.0 °F - 69.8 °F 78% 29.90 in 10.0 mi South 11.5 mph - N/A   Clear
2:35 AM 75.2 °F - 69.8 °F 83% 29.90 in 10.0 mi SSW 11.5 mph - N/A   Clear
2:55 AM 75.2 °F - 69.8 °F 83% 29.90 in 10.0 mi SSW 10.4 mph - N/A   Clear
3:15 AM 75.2 °F - 68.0 °F 78% 29.89 in 10.0 mi SSW 11.5 mph - N/A   Clear
3:35 AM 75.2 °F - 68.0 °F 78% 29.89 in 10.0 mi SSW 11.5 mph - N/A   Clear
3:55 AM 75.2 °F - 68.0 °F 78% 29.90 in 10.0 mi SSW 10.4 mph - N/A   Clear
4:15 AM 73.4 °F - 66.2 °F 78% 29.90 in 10.0 mi SSW 11.5 mph - N/A   Clear
4:35 AM 73.4 °F - 66.2 °F 78% 29.90 in 10.0 mi SSW 11.5 mph - N/A   Clear
4:55 AM 73.4 °F - 66.2 °F 78% 29.90 in 10.0 mi SSW 11.5 mph - N/A   Clear
5:15 AM 73.4 °F - 66.2 °F 78% 29.91 in 10.0 mi South 10.4 mph - N/A   Clear
5:35 AM 71.6 °F - 66.2 °F 83% 29.92 in 10.0 mi SSW 6.9 mph - N/A   Clear
5:55 AM 71.6 °F - 66.2 °F 83% 29.92 in 10.0 mi SSW 9.2 mph - N/A   Clear
6:15 AM 71.6 °F - 66.2 °F 83% 29.94 in 10.0 mi SSW 6.9 mph - N/A   Clear
6:35 AM 69.8 °F - 64.4 °F 83% 29.94 in 10.0 mi SSW 5.8 mph - N/A   Clear
6:55 AM 69.8 °F - 64.4 °F 83% 29.94 in 10.0 mi SSW 8.1 mph - N/A   Clear
7:15 AM 69.8 °F - 66.2 °F 88% 29.95 in 10.0 mi South 10.4 mph - N/A   Clear
7:35 AM 71.6 °F - 66.2 °F 83% 29.95 in 9.0 mi SSW 9.2 mph - N/A   Clear
7:55 AM 73.4 °F - 66.2 °F 78% 29.96 in 10.0 mi SSW 9.2 mph - N/A   Clear
8:35 AM 75.2 °F - 66.2 °F 73% 29.96 in 10.0 mi SSW 12.7 mph - N/A   Clear
8:55 AM 77.0 °F - 68.0 °F 74% 29.96 in 10.0 mi SSW 11.5 mph - N/A   Clear
9:15 AM 78.8 °F - 68.0 °F 69% 29.97 in 10.0 mi South 10.4 mph - N/A   Clear
9:35 AM 80.6 °F 83.2 °F 68.0 °F 65% 29.97 in 10.0 mi SSW 11.5 mph - N/A   Clear
9:55 AM 82.4 °F 85.4 °F 68.0 °F 62% 29.97 in 10.0 mi SSW 13.8 mph - N/A   Clear
10:15 AM 82.4 °F 85.4 °F 68.0 °F 62% 29.97 in 10.0 mi South 16.1 mph - N/A   Clear
10:35 AM 84.2 °F 88.4 °F 69.8 °F 62% 29.97 in 10.0 mi South 16.1 mph 19.6 mph N/A   Clear
10:55 AM 86.0 °F 90.4 °F 69.8 °F 58% 29.96 in 10.0 mi SSW 16.1 mph 23.0 mph N/A   Clear
11:15 AM 87.8 °F 92.6 °F 69.8 °F 55% 29.96 in 10.0 mi SSW 17.3 mph - N/A   Clear
11:35 AM 87.8 °F 93.8 °F 71.6 °F 58% 29.96 in 10.0 mi South 16.1 mph 23.0 mph N/A   Clear
11:55 AM 89.6 °F 96.2 °F 71.6 °F 55% 29.96 in 8.0 mi South 16.1 mph 21.9 mph N/A   Clear
12:15 PM 89.6 °F 96.2 °F 71.6 °F 55% 29.96 in 10.0 mi SSW 18.4 mph - N/A   Clear
12:35 PM 91.4 °F 98.4 °F 71.6 °F 52% 29.96 in 10.0 mi South 16.1 mph - N/A   Clear
12:55 PM 93.2 °F 100.5 °F 71.6 °F 49% 29.96 in 10.0 mi South 18.4 mph 23.0 mph N/A   Clear
1:15 PM 93.2 °F 100.5 °F 71.6 °F 49% 29.95 in 9.0 mi South 21.9 mph 25.3 mph N/A   Clear
1:35 PM 93.2 °F 100.5 °F 71.6 °F 49% 29.95 in 9.0 mi South 19.6 mph 25.3 mph N/A   Clear
1:55 PM 93.2 °F 102.4 °F 73.4 °F 52% 29.95 in 10.0 mi South 16.1 mph 24.2 mph N/A   Clear
2:15 PM 93.2 °F 102.4 °F 73.4 °F 52% 29.94 in 10.0 mi South 21.9 mph - N/A   Clear
2:35 PM 93.2 °F 102.4 °F 73.4 °F 52% 29.94 in 10.0 mi South 19.6 mph 26.5 mph N/A   Clear
2:55 PM 95.0 °F 104.5 °F 73.4 °F 49% 29.94 in 10.0 mi South 17.3 mph 26.5 mph N/A   Clear
3:15 PM 95.0 °F 104.5 °F 73.4 °F 49% 29.93 in 10.0 mi South 23.0 mph - N/A   Clear
3:35 PM 96.8 °F 107.3 °F 73.4 °F 47% 29.93 in 10.0 mi South 19.6 mph 26.5 mph N/A   Clear
3:55 PM 96.8 °F 107.3 °F 73.4 °F 47% 29.93 in 10.0 mi South 21.9 mph 27.6 mph N/A   Clear
4:15 PM 96.8 °F 107.3 °F 73.4 °F 47% 29.92 in 10.0 mi South 19.6 mph 27.6 mph N/A   Clear
4:35 PM 96.8 °F 107.3 °F 73.4 °F 47% 29.92 in 10.0 mi South 23.0 mph 27.6 mph N/A   Clear
4:55 PM 98.6 °F 109.2 °F 73.4 °F 44% 29.92 in 10.0 mi South 20.7 mph 27.6 mph N/A   Clear
5:15 PM 96.8 °F 105.1 °F 71.6 °F 44% 29.92 in 10.0 mi South 20.7 mph 27.6 mph N/A   Clear
5:35 PM 96.8 °F 105.1 °F 71.6 °F 44% 29.91 in 10.0 mi South 19.6 mph 28.8 mph N/A   Clear
5:55 PM 95.0 °F 103.2 °F 71.6 °F 47% 29.91 in 10.0 mi South 18.4 mph 27.6 mph N/A   Clear
6:15 PM 95.0 °F 103.2 °F 71.6 °F 47% 29.90 in 10.0 mi South 21.9 mph 27.6 mph N/A   Clear
6:35 PM 95.0 °F 103.2 °F 71.6 °F 47% 29.90 in 10.0 mi South 20.7 mph 25.3 mph N/A   Clear
6:55 PM 93.2 °F 98.8 °F 69.8 °F 46% 29.92 in 10.0 mi South 16.1 mph - N/A   Clear
7:15 PM 91.4 °F 96.8 °F 69.8 °F 49% 29.93 in 10.0 mi South 11.5 mph - N/A   Clear
7:35 PM 89.6 °F 94.7 °F 69.8 °F 52% 29.94 in 10.0 mi South 11.5 mph - N/A   Clear
7:55 PM 87.8 °F 93.8 °F 71.6 °F 58% 29.94 in 10.0 mi South 10.4 mph - N/A   Clear
8:15 PM 86.0 °F 91.8 °F 71.6 °F 62% 29.93 in 10.0 mi SSE 9.2 mph - N/A   Clear
8:35 PM 84.2 °F 89.6 °F 71.6 °F 66% 29.95 in 10.0 mi South 8.1 mph - N/A   Clear
8:55 PM 82.4 °F 87.2 °F 71.6 °F 70% 29.96 in 10.0 mi South 6.9 mph - N/A   Clear
9:35 PM 82.4 °F 86.3 °F 69.8 °F 66% 29.97 in 10.0 mi South 9.2 mph - N/A   Clear
9:55 PM 82.4 °F 86.3 °F 69.8 °F 66% 29.99 in 10.0 mi South 10.4 mph - N/A   Clear
10:15 PM 82.4 °F 86.3 °F 69.8 °F 66% 29.99 in 10.0 mi South 12.7 mph - N/A   Clear
10:35 PM 82.4 °F 86.3 °F 69.8 °F 66% 29.98 in 10.0 mi South 15.0 mph - N/A   Clear
10:55 PM 82.4 °F 86.3 °F 69.8 °F 66% 29.97 in 10.0 mi South 16.1 mph - N/A   Clear
11:15 PM 82.4 °F 86.3 °F 69.8 °F 66% 29.98 in 10.0 mi SSW 16.1 mph - N/A   Clear
11:35 PM 84.2 °F 88.4 °F 69.8 °F 62% 29.97 in 10.0 mi SSW 16.1 mph 23.0 mph N/A   Clear
11:55 PM 82.4 °F 86.3 °F 69.8 °F 66% 29.96 in 10.0 mi South 13.8 mph - N/A   Clear